User: anonymous   Login
Location: Newark
(41.7772°N, 74.7403°W)
Time: 09:14:26
(UTC+00:00)
Language:

Transit 2A Rocket - Orbit

View from above orbital plane
View from above orbital plane
View from above satellite
View from above satellite

Ground track
Ground track

The orbit data is extracted from the following two-line orbital elements,

1    47U 60007C   20150.55894211 -.00000047 +00000-0 +14656-4 0  9995
2    47 066.6649 205.5434 0233282 315.7541 042.5113 14.42087205131957
Epoch (UTC): 29 May 2020 13:24:52
Eccentricity: 0.0233282
inclination: 66.6649°
perigee height: 585 km
apogee height: 918 km
right ascension of ascending node: 205.5434°
argument of perigee: 315.7541°
revolutions per day: 14.42087205
mean anomaly at epoch: 42.5113°
orbit number at epoch: 13195

The dashed part of the orbit path shows where the satellite is in the earth's shadow,  

DLR